Weather in Revelstoke

Canada     51°00′37″N   118°12′38″W
temp.,
°C
wind,
m/s
gust,
m/s
humid.,
%
clouds,
%
prec.,
mm/h
press.,
hPa
HPBL,
m
12 may, wed
wed1223:00+2ene1179100 0.0 102210
02:00+1ene118182 0.0 102312
05:00+1e1181100 0.0 102315
08:00+6se1260100 0.0 1020228
11:00+12ssw1244100 0.0 10171089
14:00+10sw3258100 0.1 10181299
17:00+7wsw1187100 1.6 1020732
20:00+6w1194100 1.1 1020126
13 may, thu
thu1323:00+5w1295100 2.1 1021194
02:00+5w1295100 0.2 1021164
05:00+4wsw1196100 0.3 102250
08:00+5nne008997 0.1 1023217
11:00+9ne016989 0.1 1021850
14:00+14wsw114595 0.1 10191862
17:00+12s114897 0.2 10181397
20:00+9sw116615 0.1 101810
14 may, fri
fri1423:00+5e00815 0.1 102010
02:00+3ne11885 0.0 102110
05:00+2ne11918 0.0 102210
08:00+9ese11625 0.0 1019294
11:00+16ssw01395 0.0 10161624
14:00+18se123060 0.0 10142678
17:00+18sse132895 0.0 10122668
20:00+13w114852 0.0 101211
15 may, sat
sat1523:00+8nw116698 0.0 101510
02:00+6nnw11735 0.0 101510
05:00+5n11808 0.0 101610
08:00+11nw0159100 0.0 1016289
11:00+18w1236100 0.0 10141935
14:00+20w223076 0.0 10122580
17:00+19w122932 0.0 10102453
20:00+14w115157 0.0 101111
16 may, sun
sun1623:00+10w0166100 0.0 101210
02:00+9e1170100 0.0 101110
05:00+8ese1174100 0.0 101210
08:00+13se125595 0.0 1010281
11:00+19se233656 0.0 10081348
14:00+23sw262720 0.0 10053124
17:00+22sw262962 0.0 10042823
20:00+16sse22566 0.0 100412